User: anonymous   Login
Location: Ebenezer
(18.2167°N, 63.0667°W)
Time: 12:36:50
(UTC+00:00)
Language:

Cosmos 1356 Rocket - Orbit

View from above orbital plane
View from above orbital plane
View from above satellite
View from above satellite

Ground track
Ground track

The orbit data is extracted from the following two-line orbital elements,

1 13154U 82039B   20094.82481152 +.00000161 +00000-0 +11360-4 0  9995
2 13154 081.1841 156.6525 0039686 202.9272 157.0178 14.98718144056473
Epoch (UTC): 03 April 2020 19:47:43
Eccentricity: 0.0039686
inclination: 81.1841°
perigee height: 543 km
apogee height: 598 km
right ascension of ascending node: 156.6525°
argument of perigee: 202.9272°
revolutions per day: 14.98718144
mean anomaly at epoch: 157.0178°
orbit number at epoch: 5647

The dashed part of the orbit path shows where the satellite is in the earth's shadow,  

DLR